User: anonymous   Login
Location: Enid
(36.3960°N, 97.8780°W)
Time: 18:27:25
(UTC-06:00)
Language:

Hubble Space Telescope - Orbit

View from above orbital plane
View from above orbital plane
View from above satellite
View from above satellite

Ground track
Ground track

The orbit data is extracted from the following two-line orbital elements,

1 20580U 90037B   15056.61719907  .00002809  00000-0  17206-3 0  9999
2 20580 028.4697 169.5655 0003325 113.2913 067.1265 15.06883312162961
Epoch (UTC): 25 February 2015 14:48:46
Eccentricity: 0.0003325
inclination: 28.4697°
perigee height: 543 km
apogee height: 548 km
right ascension of ascending node: 169.5655°
argument of perigee: 113.2913°
revolutions per day: 15.06883312
mean anomaly at epoch: 67.1265°
orbit number at epoch: 16296

The dashed part of the orbit path shows where the satellite is in the earth's shadow,  

DLR